カタログに戻る

STARLINK-3125

運用中通信VLEO
NORAD 49451·PAYLOAD·🇺🇸 United States

打ち上げ Nov 13, 2021 から Cape Canaveral Space Force Station

Loading…

次のパス (今後24時間)

TLE

最新Source: CelesTrak SupGP

元期: Sep 14, 2026, 21:58 UTC

1 49451C 21104AV  26257.91576389  .00043921  00000+0  13327-2 0  2574
2 49451  53.1580  78.0045 0001454  78.4740 115.7302 15.33526505    10

AllMySatでSTARLINK-3125をリアルタイム追跡

Download on the App Store